Location: Charleville
(26.4021°S, 146.2454°E)
Time: 23:24:54
(UTC+10:00)

Envisat - Pass Details

Date: 10 November 2025
Orbit: 761 x 762 km, 98.4° (Epoch: 13 December)

Event Time Altitude Azimuth Distance (km) Brightness Sun altitude
Exits shadow 02:46:17 20° 209° (SSW) 1,743 4.9 -30.5°
Drops below altitude 10° 02:47:49 10° 203° (SSW) 2,315 5.7 -30.2°
Sets 02:50:12 0° 198° (SSW) 3,248 6.5 -29.8°
